Location: Casilda
(33.0440°S, 61.1680°W)
Time: 11:04:51
(UTC-03:00)

ISS - Pass Details

Date: 18 October 2019
Orbit: 411 x 421 km, 51.6° (Epoch: 18 October)

Event Time Altitude Azimuth Distance (km) Brightness Sun altitude
Rises 21:12:38 0° 290° (WNW) 2,352 0.6 -22.9°
Reaches altitude 10° 21:14:55 10° 276° (W) 1,497 -0.3 -23.3°
Maximum altitude 21:17:49 26° 217° (SW) 862 -1.6 -23.9°
Enters shadow 21:19:24 19° 175° (S) 1,095 -1.4 -24.1°
